Regional Weather Roundup
Issued by NWS

Home | Current Version | Previous Version | Graphics & Text | Print | Product List | Glossary On
Versions: 1 2 3 4 5 6 7 8 9 10 11 12 13 14 15 16 17 18 19 20 21 22 23 24 25 26 27 28 29 30 31 32 33 34 35 36 37 38 39 40 41 42 43 44 45 46 47 48 49 50
000
ASUS43 KBIS 271220
RWRND

NORTH DAKOTA REGIONAL WEATHER ROUNDUP
NATIONAL WEATHER SERVICE BISMARCK ND
600 AM CST THU NOV 27 2014

NOTE: "FAIR" INDICATES FEW OR NO CLOUDS BELOW 12,000 FEET WITH NO
SIGNIFICANT WEATHER AND/OR OBSTRUCTIONS TO VISIBILITY.


NDZ001>003-009>011-017-271300-
NORTHWEST NORTH DAKOTA

CITY           SKY/WX    TMP DP  RH WIND       PRES   REMARKS
WILLISTON      MOCLDY    10   6  84 CALM      30.22F
6HR MIN TEMP:   2; 6HR MAX TEMP:  10;

MINOT          CLOUDY    -9 -15  75 E3        30.31F
MINOT AFB      FLURRIES -11 -16  80 SE6       30.31F WCI -25
$$

NDZ018>021-031>035-040>046-271300-
SOUTHWEST NORTH DAKOTA

CITY           SKY/WX    TMP DP  RH WIND       PRES   REMARKS
BISMARCK       MOCLDY    -8 -12  83 E7        30.38F WCI -23
6HR MIN TEMP: -12; 6HR MAX TEMP:  -7;

DICKINSON      CLOUDY    13   9  84 S15       30.17F WCI  -3
GARRISON         N/A      9   6  88 S8        30.30F WCI  -3
6HR MIN TEMP:  -1; 6HR MAX TEMP:   9;

HETTINGER ARPT CLOUDY    12  10  92 SE9       30.20F WCI   0
$$

NDZ004>008-012>016-024-026-027-054-271300-
NORTHEAST NORTH DAKOTA

CITY           SKY/WX    TMP DP  RH WIND       PRES   REMARKS
GRAND FORKS    MOCLDY   -15 -20  78 S5        30.51F WCI -27
GRND FRKS AFB  PTCLDY   -15 -21  75 SW6       30.50F WCI -30
DEVILS LAKE    PTCLDY    -6 -15  65 SW7       30.37F WCI -20
$$

NDZ022-023-025-028>030-036>039-047>053-271300-
SOUTHEAST NORTH DAKOTA

CITY           SKY/WX    TMP DP  RH WIND       PRES   REMARKS
FARGO          PTCLDY   -12 -17  78 SW3       30.54F
6HR MIN TEMP: -13; 6HR MAX TEMP:  -9;

JAMESTOWN      MOCLDY   -23 -29  73 S3        30.43F
$$



USA.gov is the U.S. government's official web portal to all federal, state and local government web resources and services.